This is the latest recevied weather packets stored in our database for station/object KB9HUO. If no packets are shown the sender has not sent any weather packets the latest 10 day(s).
| Time | Temp. | Humidity | Pressure | Rain* | Wind** | Luminosity | Snow |
|---|---|---|---|---|---|---|---|
| 1788129299 | 30.56° C | 61% | 1018.1 hPa | 0 mm | - | 25 W/m² | - |
| 1788129015 | 30.56° C | 59% | 1018.2 hPa | 0 mm | - | 26 W/m² | - |
| 1788128693 | 30.56° C | 59% | 1018.3 hPa | 0 mm | - | 27 W/m² | - |
| 1788128388 | 30.56° C | 58% | 1018.2 hPa | 0 mm | - | 28 W/m² | - |
| 1788128084 | 31.11° C | 57% | 1018.3 hPa | 0 mm | - | 29 W/m² | - |
| 1788127779 | 31.11° C | 56% | 1018.3 hPa | 0 mm | - | 30 W/m² | - |
| 1788127474 | 31.11° C | 56% | 1018.2 hPa | 0 mm | - | 31 W/m² | - |
| 1788127171 | 31.11° C | 56% | 1018.3 hPa | 0 mm | - | 33 W/m² | - |
| 1788126866 | 31.11° C | 56% | 1018.3 hPa | 0 mm | - | 33 W/m² | - |
| 1788126561 | 31.11° C | 57% | 1018.2 hPa | 0 mm | - | 46 W/m² | - |
| 1788126257 | 31.11° C | 57% | 1018.4 hPa | 0 mm | - | 36 W/m² | - |
| 1788125956 | 31.11° C | 56% | 1018.5 hPa | 0 mm | - | 36 W/m² | - |
| 1788125652 | 31.11° C | 56% | 1018.4 hPa | 0 mm | - | 36 W/m² | - |
| 1788125347 | 31.11° C | 55% | 1018.4 hPa | 0 mm | - | 37 W/m² | - |
| 1788125043 | 31.67° C | 54% | 1018.7 hPa | 0 mm | - | 39 W/m² | - |
| 1788124743 | 31.67° C | 54% | 1018.7 hPa | 0 mm | - | 42 W/m² | - |
| 1788124442 | 31.67° C | 54% | 1018.8 hPa | 0 mm | - | 50 W/m² | - |
| 1788124138 | 31.67° C | 54% | 1018.8 hPa | 0 mm | - | 49 W/m² | - |
| 1788123837 | 31.67° C | 54% | 1018.9 hPa | 0 mm | - | 51 W/m² | - |
| 1788123535 | 31.11° C | 52% | 1019 hPa | 0 mm | - | 56 W/m² | - |
| 1788123234 | 31.67° C | 54% | 1019 hPa | 0 mm | - | 55 W/m² | - |
| 1788122930 | 31.67° C | 54% | 1019 hPa | 0 mm | - | 76 W/m² | - |
| 1788122628 | 31.67° C | 54% | 1019.1 hPa | 0 mm | - | 73 W/m² | - |
| 1788122324 | 31.67° C | 55% | 1019.2 hPa | 0 mm | - | 77 W/m² | - |
| 1788122021 | 31.67° C | 53% | 1019.1 hPa | 0 mm | - | 53 W/m² | - |
* Rain latest hour (hover to see other rain measurements)
** Current wind speed in m/s (hover to see current wind gust speed)